Location: Buch am Rannenberg
(48.6989°N, 10.6399°E)
Time: 03:28:04
(UTC+00:00)

STARLINK-1367 - Pass Details

Date: 07 June 2020
Orbit: 374 x 385 km, 53.0° (Epoch: 09 July)

Event Time Altitude Azimuth Distance (km) Brightness Sun altitude
Rises 01:31:58 0° 294° (WNW) 2,271 6.7 -12.4°
Reaches altitude 10° 01:34:02 10° 298° (WNW) 1,417 5.7 -12.2°
Maximum altitude 01:37:11 62° 20° (NNE) 440 3.4 -11.9°
Drops below altitude 10° 01:40:19 10° 102° (ESE) 1,414 6.0 -11.6°
Sets 01:42:23 0° 106° (ESE) 2,267 7.0 -11.4°
